La Crosse, WI

1:46 AM CDT on April 25, 2017 (GMT -0500)
La Crosse Municipal

Weather History for KLSE - January, 2014

Change the Weather History Date:

Tuesday, January 14, 2014

  Actual Average Record
Temperature  
Mean Temperature 22 °F 17 °F  
Max Temperature 34 °F 26 °F 47 °F (1914)
Min Temperature 10 °F 9 °F -27 °F (1965)
Degree Days  
Heating Degree Days 43 48  
Month to date heating degree days 759 668  
Since 1 July heating degree days 3687 3512  
Cooling Degree Days 0 0  
Month to date cooling degree days 0 0  
Year to date cooling degree days 0 0  
Moisture  
Dew Point 20 °F    
Average Humidity 84    
Maximum Humidity 100    
Minimum Humidity 67    
Precipitation  
Precipitation 0.32 in 0.03 in 0.93 in (1930)
Month to date precipitation 0.44 0.48  
Year to date precipitation 0.44 0.48  
Snow  
Snow 6.50 in 0.30 in 10.90 in (1930)
Month to date snowfall 7.4 4.2  
Since 1 July snowfall 21.1 19.8  
Snow Depth 7.00 in    
Sea Level Pressure  
Sea Level Pressure 29.69 in    
Wind  
Wind Speed 15 mph (WNW)    
Max Wind Speed 28 mph    
Max Gust Speed 35 mph    
Visibility 5 miles    
Events Fog , Snow    
T = Trace of Precipitation, MM = Missing Value Source: NWS Daily Summary

Daily Weather History Graph

Daily Weather History Graph

Search for Another Location

Airport or City:

Trip Planner

Search our weather history database for the weather conditions in past years. The results will help you decide how hot, cold, wet, or windy it might be!

Date:

Astronomy

Jan. 14, 2014 Rise Set
Actual Time 7:36 AM CST 4:52 PM CST
Civil Twilight 7:04 AM CST 5:24 PM CST
Nautical Twilight 6:28 AM CST 5:59 PM CST
Astronomical Twilight 5:54 AM CST 6:34 PM CST
Moon 3:58 PM CST (1/14) 6:10 AM CST (1/14)
Length of Visible Light 10h 19m
Length of Day
9h 15m
Waxing Gibbous, 98% of the Moon is Illuminated
Jan 14
Waxing Gibbous
Jan 15
Full
Jan 23
Last Quarter
Jan 30
New
Feb 6
First Quarter

Hourly Weather History & Observations

Time (CST) Temp. Windchill Dew Point Humidity Pressure Visibility Wind Dir Wind Speed Gust Speed Precip Events Conditions
12:53 AM 28.9 °F 21.9 °F 24.1 °F 82% 29.62 in 10.0 mi SE 6.9 mph - N/A   Overcast
1:53 AM 30.9 °F 23.5 °F 23.0 °F 72% 29.59 in 10.0 mi SE 8.1 mph - N/A   Overcast
2:53 AM 30.9 °F 25.2 °F 24.1 °F 76% 29.55 in 10.0 mi SE 5.8 mph - N/A   Overcast
3:48 AM 32.0 °F 28.7 °F 24.8 °F 75% 29.50 in 3.0 mi South 3.5 mph - 0.00 in Snow Light Snow
3:53 AM 32.0 °F 27.5 °F 26.1 °F 79% 29.53 in 3.0 mi South 4.6 mph - 0.00 in Snow Light Snow
4:00 AM 32.0 °F 26.4 °F 26.1 °F 79% 29.50 in 1.8 mi South 5.8 mph - 0.01 in Snow Light Snow
4:09 AM 30.9 °F 23.5 °F 27.0 °F 85% 29.49 in 1.0 mi SSE 8.1 mph - 0.01 in Snow Light Snow
4:18 AM 30.9 °F 22.8 °F 27.0 °F 85% 29.48 in 0.5 mi SE 9.2 mph - 0.02 in Fog , Snow Snow
4:53 AM 30.9 °F 27.5 °F 30.0 °F 96% 29.51 in 0.5 mi South 3.5 mph - 0.08 in Fog , Snow Snow
5:24 AM 30.9 °F 27.5 °F 30.0 °F 96% 29.46 in 1.2 mi SSE 3.5 mph - 0.06 in Snow Light Snow
5:45 AM 30.9 °F 27.5 °F 28.9 °F 92% 29.46 in 1.8 mi SSW 3.5 mph - 0.06 in Snow Light Snow
5:53 AM 30.9 °F 27.5 °F 28.0 °F 89% 29.48 in 2.0 mi SSE 3.5 mph - 0.06 in Snow Light Snow
6:10 AM 30.9 °F 27.5 °F 30.0 °F 96% 29.45 in 2.5 mi South 3.5 mph - 0.01 in Snow Light Snow
6:24 AM 30.9 °F 26.2 °F 28.9 °F 92% 29.45 in 3.0 mi South 4.6 mph - 0.01 in Snow Light Snow
6:32 AM 32.0 °F 26.4 °F 28.9 °F 88% 29.45 in 4.0 mi South 5.8 mph - 0.01 in   Overcast
6:53 AM 32.0 °F 27.5 °F 28.9 °F 88% 29.48 in 5.0 mi SSW 4.6 mph - 0.01 in   Overcast
7:49 AM 33.8 °F 26.4 °F 28.4 °F 81% 29.47 in 10.0 mi WNW 9.2 mph - N/A   Overcast
7:53 AM 34.0 °F 25.5 °F 28.9 °F 82% 29.50 in 10.0 mi WNW 11.5 mph - N/A   Overcast
8:53 AM 32.0 °F 19.8 °F 26.1 °F 79% 29.54 in 10.0 mi West 20.7 mph - N/A   Overcast
9:21 AM 30.9 °F 17.5 °F 26.1 °F 82% 29.51 in 8.0 mi NW 24.2 mph 29.9 mph N/A   Overcast
9:53 AM 28.9 °F 16.1 °F 25.0 °F 85% 29.58 in 7.0 mi NW 19.6 mph - N/A   Overcast
10:17 AM 28.0 °F 14.3 °F 23.0 °F 81% 29.56 in 1.8 mi NW 21.9 mph - 0.00 in Snow Light Snow
10:34 AM 27.0 °F 12.2 °F 23.0 °F 85% 29.58 in 0.8 mi NW 24.2 mph - 0.00 in Snow Light Snow
10:53 AM 27.0 °F 13.5 °F 23.0 °F 85% 29.64 in 0.5 mi NW 19.6 mph - 0.01 in Fog , Snow Snow
11:53 AM 26.1 °F 11.3 °F 21.9 °F 84% 29.67 in 0.5 mi NW 23.0 mph 28.8 mph 0.01 in Fog , Snow Snow
12:53 PM 24.1 °F 7.7 °F 21.0 °F 88% 29.71 in 0.5 mi NW 26.5 mph 34.5 mph 0.00 in Fog , Snow Snow
1:53 PM 24.1 °F 8.0 °F 19.9 °F 84% 29.75 in 0.8 mi NW 25.3 mph - 0.00 in Snow Light Snow
2:09 PM 24.1 °F 9.0 °F 19.9 °F 84% 29.73 in 0.5 mi NW 21.9 mph - 0.00 in Fog , Snow Snow
2:53 PM 23.0 °F 7.2 °F 19.0 °F 85% 29.82 in 0.8 mi NNW 23.0 mph 29.9 mph 0.00 in Snow Light Snow
3:05 PM 23.0 °F 8.0 °F 18.0 °F 81% 29.78 in 1.0 mi NW 20.7 mph 29.9 mph 0.00 in Snow Light Snow
3:16 PM 23.0 °F 7.2 °F 17.1 °F 78% 29.79 in 1.0 mi NW 23.0 mph - 0.00 in Snow Light Snow
3:53 PM 21.9 °F 5.1 °F 16.0 °F 78% 29.86 in 1.8 mi NNW 25.3 mph 31.1 mph 0.00 in Snow Light Snow
4:53 PM 19.9 °F 4.8 °F 15.1 °F 81% 29.91 in 2.0 mi NW 18.4 mph - 0.00 in Snow Light Snow
5:05 PM 19.9 °F 3.2 °F 15.1 °F 81% 29.87 in 4.0 mi NNW 23.0 mph 28.8 mph 0.00 in Snow Light Snow
5:37 PM 19.9 °F 4.8 °F 12.9 °F 74% 29.89 in 7.0 mi NW 18.4 mph - 0.00 in   Overcast
5:53 PM 19.0 °F 2.7 °F 12.9 °F 77% 29.95 in 9.0 mi NW 20.7 mph - 0.00 in   Overcast
6:53 PM 18.0 °F 2.2 °F 10.0 °F 71% 29.99 in 10.0 mi NW 18.4 mph - 0.00 in   Overcast
7:31 PM 18.0 °F 1.7 °F 10.0 °F 71% 29.96 in 10.0 mi NNW 19.6 mph - N/A   Overcast
7:53 PM 18.0 °F 2.6 °F 9.0 °F 68% 30.01 in 10.0 mi NW 17.3 mph - N/A   Overcast
8:53 PM 17.1 °F 0.1 °F 8.1 °F 68% 30.04 in 10.0 mi NW 20.7 mph - N/A   Overcast
9:53 PM 14.0 °F -3.0 °F 5.0 °F 67% 30.07 in 10.0 mi NNW 18.4 mph - N/A   Mostly Cloudy
10:11 PM 12.9 °F -2.2 °F 3.9 °F 67% 30.02 in 10.0 mi NNW 13.8 mph - N/A   Scattered Clouds
10:53 PM 12.0 °F -2.0 °F 3.0 °F 67% 30.09 in 10.0 mi NNW 11.5 mph - N/A   Clear
11:53 PM 10.9 °F -2.6 °F 1.9 °F 67% 30.10 in 10.0 mi NW 10.4 mph - N/A   Mostly Cloudy